Погода в Омсукчане

Россия / Магаданская область     62°30′55″N   155°47′00″E
темп.,
°C
ветер,
м/с
пор.,
м/с
влажн.,
%
обл.,
%
осадки,
мм/ч
давл.,
гПа
погр.,
м
16 мая, вс
вс1623:00−12ююз22945 0.0 102210
02:00−13ююз229744 0.0 102111
05:00−12ю329862 0.0 102021
08:00−5ююв33925 0.0 1018142
11:00−3ююв349274 0.0 1017354
14:00−2ююв3495100 0.0 1016458
17:00−2ююв4587100 0.1 1015531
20:00−3ююв359195 0.0 1014356
17 мая, пн
пн1723:00−7ююв3397100 0.0 101532
02:00−8ю3398100 0.0 101437
05:00−7ю3397100 0.0 101297
08:00−4ююв2393100 0.0 1011196
11:00−2ююв3493100 0.0 1009338
14:00−1юв2399100 0.0 1007368
17:00−1юв239199 0.0 1006455
20:00−2юв229195 0.0 100616
18 мая, вт
вт1823:00−5ююв3297100 0.0 100728
02:00−4ююв2298100 0.0 100636
05:00−5ююв2298100 0.0 100637
08:00−3ююв2394100 0.0 1006251
11:00−1ююв2390100 0.0 1005553
14:00−1ююв2388100 0.1 1004606
17:000ююв3385100 0.1 1003486
20:00−2ююв2291100 0.0 100432
19 мая, ср
ср1923:00−4ю2294100 0.0 100433
02:00−5ю2297100 0.0 100425
05:00−5ю2310079 0.0 100475
08:00−3ю339698 0.0 1004270
11:00−2ююв339299 0.0 1004447
14:000ююв348570 0.0 1003620
17:00+1ююв347883 0.0 1003704
20:00−1ююв228449 0.0 100439
20 мая, чт
чт2023:00−4ююв32915 0.0 100527
02:00−5ююв229832 0.0 100526
05:00−4ююв239565 0.0 1004207
08:00−3юв238286 0.0 1003539
11:00−1юв2376100 0.1 1001698
14:00−1всв2290100 1.4 1000396
17:00−1ссв3493100 2.0 998389
20:00−1св229661 0.9 99972